Miscellaneous Local Product
Issued by NWS Hastings, NE

Home | Current Version | Previous Version | Graphics & Text | Print | Product List | Glossary On
Versions: 1 2 3 4 5 6 7 8 9 10 11 12 13 14 15 16 17 18 19 20 21 22 23 24 25 26 27 28 29 30 31 32 33 34 35 36 37 38 39 40 41 42 43 44 45 46 47 48 49 50
000
AXUS43 KGID 310902
MISGRI

GID CWA HOURLY WEATHER ROUNDUP
NATIONAL WEATHER SERVICE HASTINGS NE
400 AM CDT MON AUG 31 2015

NOTE: "FAIR" INDICATES FEW OR NO CLOUDS BELOW 12,000 FEET WITH NO
SIGNIFICANT WEATHER AND/OR OBSTRUCTIONS TO VISIBILITY.

...SOUTH CENTRAL NEBRASKA...

CITY           SKY/WX    TMP DP  RH WIND       PRES   REMARKS
GRAND ISLAND   CLEAR     65  63  93 S9        29.94S
HASTINGS       CLEAR     65  63  93 S8        29.94F
KEARNEY        CLEAR     63  59  88 S7        29.94F
ORD            CLEAR     63  61  93 S6        29.92S
YORK           CLOUDY    64  63  94 S8        29.95F FOG
AURORA         CLEAR     65  65 100 S7        29.94F FOG
LEXINGTON      CLEAR     67  64  90 S14       29.93F
HOLDREGE       CLEAR     63  61  94 S3        29.96R
HEBRON         CLEAR     62  62 100 SE3       29.95F FOG

...NEBRASKA PANHANDLE...

CITY           SKY/WX    TMP DP  RH WIND       PRES   REMARKS
CHADRON        CLOUDY    72  52  49 NW7       29.84R
ALLIANCE       MOCLDY    67  51  56 S10       29.90F
SCOTTSBLUFF    MOCLDY    68  55  63 CALM      29.91R
SIDNEY         CLEAR     61  48  62 S9        29.95F

...WESTERN AND NORTH CENTRAL NEBRASKA...

CITY           SKY/WX    TMP DP  RH WIND       PRES   REMARKS
VALENTINE      CLEAR     70  52  52 SW18      29.83F
AINSWORTH      CLEAR     68  59  73 S22G28    29.85F
ONEILL         CLEAR     65  64  96 S14       29.90S
BROKEN BOW     CLEAR     65  62  90 S7        29.93S
IMPERIAL       CLEAR     68  47  46 S9        29.93S
NORTH PLATTE   PTCLDY    62  55  77 SE6       29.93S
MCCOOK         CLEAR     66  55  67 S8        29.93F

...EASTERN NEBRASKA...

CITY           SKY/WX    TMP DP  RH WIND       PRES   REMARKS
NORFOLK        PTCLDY    66  64  93 S9        29.91F
TEKAMAH        FOG       61  61 100 S3        29.94F VSB 1/4
COLUMBUS       CLEAR    N/A N/A N/A SE3       29.94S
ALBION         CLEAR     63  61  93 SE3       29.93S FOG
OMAHA EPPLEY   PTCLDY    66  66 100 SE5       29.95S
OFFUTT AFB     CLEAR     60  60 100 E3        29.94S
MILLARD          N/A     65  64  96 CALM      29.94F FOG
LINCOLN        CLEAR     64  64 100 S3        29.95F FOG
NEBRASKA CITY  FOG       64  64  99 S5        29.96S VSB 1/2
BEATRICE       CLEAR     65  64  97 SE3       29.95F FOG
FALLS CITY     FOG       65  65 100 CALM      29.94F VSB 1/4

...NORTHERN KANSAS...

CITY           SKY/WX    TMP DP  RH WIND       PRES   REMARKS
GOODLAND       CLEAR     61  51  70 S14       29.95F
HILL CITY      CLEAR     63  60  90 S5        29.94F
NORTON         SUNNY     61  55  82 SE5       29.94S
PHILLIPSBURG   FOG       63  63 100 E5        29.94F VSB 1/2
SMITH CENTER   CLEAR     61  61 100 E8        29.94F FOG
HAYS           CLEAR     61  52  72 SE3       29.95S
RUSSELL        CLEAR     64  62  93 S9        29.93F
CONCORDIA      CLEAR     65  63  93 S8        29.94F
SALINA         CLEAR     63  61  93 SE5       29.94F FOG
TOPEKA         CLEAR     68  67  96 CALM      29.95S



USA.gov is the U.S. government's official web portal to all federal, state and local government web resources and services.